| time (UTC) | temp C | wind direction | speed KPH | gust KPH | rain 1hr cm | rain 24hr cm | rain mn cm | humidity % | barometer mb |
| 20260505220013 | 11 | 10 | 4.8 | 14.5 | 0.00 | 0.00 | 0.00 | 71 | 1021.6 |
| 20260505215508 | 10 | 23 | 8.0 | 14.5 | 0.00 | 0.00 | 0.00 | 71 | 1021.6 |
| 20260505215007 | 10 | 339 | 6.4 | 14.5 | 0.00 | 0.00 | 0.00 | 71 | 1021.6 |
| 20260505214504 | 10 | 330 | 8.0 | 14.5 | 0.00 | 0.00 | 0.00 | 72 | 1021.6 |
| 20260505214003 | 10 | 14 | 3.2 | 9.7 | 0.00 | 0.00 | 0.00 | 72 | 1021.7 |
| 20260505213503 | 10 | 358 | 1.6 | 11.3 | 0.00 | 0.00 | 0.00 | 72 | 1021.7 |
| 20260505213004 | 10 | 16 | 3.2 | 11.3 | 0.00 | 0.00 | 0.00 | 72 | 1021.7 |
| 20260505212503 | 10 | 14 | 4.8 | 11.3 | 0.00 | 0.00 | 0.00 | 72 | 1021.7 |
| 20260505212003 | 10 | 358 | 0.0 | 11.3 | 0.00 | 0.00 | 0.00 | 72 | 1021.5 |
| 20260505211504 | 10 | 341 | 4.8 | 11.3 | 0.00 | 0.00 | 0.00 | 72 | 1021.7 |
| 20260505211003 | 10 | 4 | 3.2 | 8.0 | 0.00 | 0.00 | 0.00 | 73 | 1021.8 |
| 20260505210507 | 10 | 14 | 3.2 | 11.3 | 0.00 | 0.00 | 0.00 | 73 | 1021.8 |
| 20260505210004 | 10 | 360 | 4.8 | 11.3 | 0.00 | 0.00 | 0.00 | 73 | 1021.6 |
| 20260505205513 | 10 | 13 | 3.2 | 9.7 | 0.00 | 0.00 | 0.00 | 73 | 1021.6 |
| 20260505205006 | 10 | 358 | 6.4 | 9.7 | 0.00 | 0.00 | 0.00 | 73 | 1021.7 |
| 20260505204506 | 10 | 337 | 6.4 | 9.7 | 0.00 | 0.00 | 0.00 | 73 | 1021.8 |
| 20260505204006 | 10 | 359 | 4.8 | 11.3 | 0.00 | 0.00 | 0.00 | 73 | 1021.7 |
| 20260505203503 | 10 | 10 | 4.8 | 11.3 | 0.00 | 0.00 | 0.00 | 73 | 1021.7 |
| 20260505203013 | 10 | 4 | 4.8 | 9.7 | 0.00 | 0.00 | 0.00 | 73 | 1021.8 |
| 20260505202503 | 10 | 4 | 3.2 | 9.7 | 0.00 | 0.00 | 0.00 | 73 | 1021.7 |
| 20260505202004 | 10 | 8 | 3.2 | 8.0 | 0.00 | 0.00 | 0.00 | 73 | 1021.7 |
| 20260505201506 | 10 | 10 | 3.2 | 11.3 | 0.00 | 0.00 | 0.00 | 73 | 1021.7 |
| 20260505201004 | 10 | 339 | 4.8 | 11.3 | 0.00 | 0.00 | 0.00 | 74 | 1021.5 |
| 20260505200504 | 10 | 341 | 3.2 | 8.0 | 0.00 | 0.00 | 0.00 | 74 | 1021.5 |
| 20260505200009 | 10 | 349 | 3.2 | 9.7 | 0.00 | 0.00 | 0.00 | 73 | 1021.5 |
| 20260505195504 | 10 | 348 | 3.2 | 9.7 | 0.00 | 0.00 | 0.00 | 73 | 1021.5 |
| 20260505195007 | 10 | 10 | 4.8 | 9.7 | 0.00 | 0.00 | 0.00 | 73 | 1021.4 |
| 20260505194514 | 10 | 15 | 1.6 | 9.7 | 0.00 | 0.00 | 0.00 | 74 | 1021.4 |
| 20260505194004 | 10 | 14 | 1.6 | 6.4 | 0.00 | 0.00 | 0.00 | 74 | 1021.4 |
| 20260505193512 | 10 | 17 | 0.0 | 9.7 | 0.00 | 0.00 | 0.00 | 74 | 1021.4 |
| 20260505193011 | 10 | 16 | 4.8 | 9.7 | 0.00 | 0.00 | 0.00 | 74 | 1021.4 |
| 20260505192503 | 10 | 4 | 1.6 | 6.4 | 0.00 | 0.00 | 0.00 | 74 | 1021.4 |
| 20260505192008 | 10 | 4 | 3.2 | 6.4 | 0.00 | 0.00 | 0.00 | 74 | 1021.5 |
| 20260505191513 | 10 | 360 | 1.6 | 6.4 | 0.00 | 0.00 | 0.00 | 73 | 1021.5 |
| 20260505191009 | 10 | 2 | 1.6 | 6.4 | 0.00 | 0.00 | 0.00 | 74 | 1021.6 |
| 20260505190504 | 10 | 352 | 0.0 | 4.8 | 0.00 | 0.00 | 0.00 | 73 | 1021.5 |
| 20260505190005 | 10 | 353 | 1.6 | 4.8 | 0.00 | 0.00 | 0.00 | 73 | 1021.6 |
| 20260505185504 | 11 | 353 | 1.6 | 4.8 | 0.00 | 0.00 | 0.00 | 72 | 1021.6 |
| 20260505185005 | 11 | 353 | 1.6 | 4.8 | 0.00 | 0.00 | 0.00 | 72 | 1021.5 |
| 20260505184006 | 11 | 352 | 1.6 | 11.3 | 0.00 | 0.00 | 0.00 | 71 | 1021.5 |
| 20260505183507 | 11 | 4 | 1.6 | 11.3 | 0.00 | 0.00 | 0.00 | 72 | 1021.5 |
| 20260505183014 | 11 | 333 | 1.6 | 6.4 | 0.00 | 0.00 | 0.00 | 72 | 1021.5 |
| 20260505182504 | 11 | 21 | 0.0 | 4.8 | 0.00 | 0.00 | 0.00 | 72 | 1021.5 |
| 20260505182006 | 11 | 14 | 1.6 | 4.8 | 0.00 | 0.00 | 0.00 | 72 | 1021.6 |
| 20260505181518 | 11 | 360 | 0.0 | 4.8 | 0.00 | 0.00 | 0.00 | 72 | 1021.6 |
| 20260505180510 | 11 | 360 | 1.6 | 6.4 | 0.00 | 0.00 | 0.00 | 72 | 1021.6 |
| 20260505180019 | 11 | 17 | 0.0 | 6.4 | 0.00 | 0.00 | 0.00 | 72 | 1021.6 |
| 20260505175504 | 11 | 14 | 0.0 | 4.8 | 0.00 | 0.00 | 0.00 | 72 | 1021.6 |
| 20260505175004 | 11 | 358 | 0.0 | 1.6 | 0.00 | 0.00 | 0.00 | 72 | 1021.6 |
| 20260505174505 | 11 | 354 | 0.0 | 8.0 | 0.00 | 0.00 | 0.00 | 71 | 1021.7 |
| 20260505173505 | 11 | 354 | 1.6 | 4.8 | 0.00 | 0.00 | 0.00 | 71 | 1021.7 |
| 20260505173010 | 11 | 353 | 1.6 | 4.8 | 0.00 | 0.00 | 0.00 | 72 | 1021.8 |
| 20260505172507 | 11 | 353 | 1.6 | 8.0 | 0.00 | 0.00 | 0.00 | 72 | 1021.8 |
| 20260505172008 | 11 | 351 | 1.6 | 8.0 | 0.00 | 0.00 | 0.00 | 72 | 1021.9 |
| 20260505171008 | 10 | 359 | 1.6 | 8.0 | 0.00 | 0.00 | 0.00 | 73 | 1021.9 |
| 20260505170509 | 10 | 339 | 1.6 | 6.4 | 0.00 | 0.00 | 0.00 | 73 | 1021.9 |
| 20260505170006 | 11 | 335 | 0.0 | 4.8 | 0.00 | 0.00 | 0.00 | 72 | 1022.0 |
| 20260505165510 | 11 | 314 | 1.6 | 6.4 | 0.00 | 0.00 | 0.00 | 72 | 1022.0 |
| 20260505165005 | 11 | 319 | 3.2 | 11.3 | 0.00 | 0.00 | 0.00 | 72 | 1022.0 |
| 20260505164524 | 11 | 334 | 3.2 | 11.3 | 0.00 | 0.00 | 0.00 | 71 | 1022.1 |
| 20260505164007 | 11 | 3 | 4.8 | 11.3 | 0.00 | 0.00 | 0.00 | 72 | 1022.1 |
| 20260505163503 | 11 | 345 | 4.8 | 11.3 | 0.00 | 0.00 | 0.00 | 71 | 1022.1 |
| 20260505162506 | 10 | 2 | 6.4 | 12.9 | 0.00 | 0.00 | 0.00 | 73 | 1022.2 |
| 20260505162007 | 10 | 8 | 3.2 | 8.0 | 0.00 | 0.00 | 0.00 | 73 | 1022.3 |
| 20260505161513 | 10 | 8 | 3.2 | 8.0 | 0.00 | 0.00 | 0.00 | 72 | 1022.4 |
| 20260505161008 | 10 | 4 | 3.2 | 8.0 | 0.00 | 0.00 | 0.00 | 72 | 1022.3 |
| 20260505160511 | 10 | 17 | 3.2 | 9.7 | 0.00 | 0.00 | 0.00 | 72 | 1022.4 |
| 20260505153028 | 10 | 2 | 3.2 | 8.0 | 0.00 | 0.00 | 0.00 | 73 | 1022.7 |
| 20260505152511 | 10 | 22 | 4.8 | 8.0 | 0.00 | 0.00 | 0.00 | 73 | 1022.7 |
| 20260505152012 | 10 | 335 | 0.0 | 9.7 | 0.00 | 0.00 | 0.00 | 73 | 1022.8 |
| 20260505151006 | 10 | 358 | 6.4 | 11.3 | 0.00 | 0.00 | 0.00 | 72 | 1022.8 |
| 20260505150509 | 11 | 7 | 3.2 | 9.7 | 0.00 | 0.00 | 0.00 | 72 | 1022.8 |
| 20260505140511 | 11 | 20 | 0.0 | 4.8 | 0.00 | 0.00 | 0.00 | 69 | 1022.8 |
| 20260505125008 | 11 | 17 | 3.2 | 6.4 | 0.00 | 0.00 | 0.00 | 69 | 1023.2 |
| 20260505124502 | 11 | 35 | 0.0 | 4.8 | 0.00 | 0.00 | 0.00 | 69 | 1023.2 |
| 20260505124006 | 11 | 42 | 1.6 | 3.2 | 0.00 | 0.00 | 0.00 | 69 | 1023.3 |
| 20260505123506 | 11 | 42 | 0.0 | 4.8 | 0.00 | 0.00 | 0.00 | 69 | 1023.4 |
| 20260505123003 | 11 | 42 | 0.0 | 4.8 | 0.00 | 0.00 | 0.00 | 69 | 1023.5 |
| 20260505122504 | 11 | 24 | 1.6 | 4.8 | 0.00 | 0.00 | 0.00 | 69 | 1023.6 |
| 20260505122004 | 11 | 25 | 0.0 | 4.8 | 0.00 | 0.00 | 0.00 | 69 | 1023.6 |
| 20260505121506 | 11 | 41 | 0.0 | 6.4 | 0.00 | 0.00 | 0.00 | 70 | 1023.6 |
| 20260505121005 | 11 | 41 | 0.0 | 6.4 | 0.00 | 0.00 | 0.00 | 70 | 1023.6 |
| 20260505120508 | 11 | 41 | 1.6 | 4.8 | 0.00 | 0.00 | 0.00 | 70 | 1023.7 |
| 20260505115502 | 11 | 50 | 0.0 | 4.8 | 0.00 | 0.00 | 0.00 | 70 | 1023.7 |
| 20260505114505 | 11 | 27 | 0.0 | 0.0 | 0.00 | 0.00 | 0.00 | 70 | 1023.7 |
| 20260505113504 | 11 | 27 | 0.0 | 4.8 | 0.00 | 0.00 | 0.00 | 70 | 1023.8 |
| 20260505113004 | 11 | 27 | 0.0 | 4.8 | 0.00 | 0.00 | 0.00 | 70 | 1023.7 |
| 20260505112507 | 11 | 27 | 0.0 | 1.6 | 0.00 | 0.00 | 0.00 | 70 | 1023.7 |
| 20260505112003 | 11 | 27 | 0.0 | 0.0 | 0.00 | 0.00 | 0.00 | 70 | 1023.6 |
| 20260505111505 | 11 | 27 | 0.0 | 0.0 | 0.00 | 0.00 | 0.00 | 70 | 1023.6 |
| 20260505111004 | 11 | 27 | 0.0 | 0.0 | 0.00 | 0.00 | 0.00 | 70 | 1023.5 |
| 20260505110504 | 11 | 27 | 0.0 | 4.8 | 0.00 | 0.00 | 0.00 | 70 | 1023.6 |
| 20260505102007 | 11 | 14 | 0.0 | 0.0 | 0.00 | 0.00 | 0.00 | 70 | 1023.7 |
| 20260505101507 | 11 | 14 | 0.0 | 0.0 | 0.00 | 0.00 | 0.00 | 70 | 1023.7 |
| 20260505101002 | 11 | 14 | 0.0 | 0.0 | 0.00 | 0.00 | 0.00 | 70 | 1023.6 |
| 20260505100503 | 11 | 14 | 0.0 | 0.0 | 0.00 | 0.00 | 0.00 | 70 | 1023.6 |
| 20260505100005 | 11 | 212 | 0.0 | 0.0 | 0.00 | 0.00 | 0.00 | 70 | 1023.6 |
| 20260505095507 | 11 | 212 | 0.0 | 0.0 | 0.00 | 0.00 | 0.00 | 70 | 1023.6 |
| 20260505095007 | 11 | 212 | 0.0 | 0.0 | 0.00 | 0.00 | 0.00 | 69 | 1023.6 |
| 20260505094505 | 11 | 212 | 0.0 | 0.0 | 0.00 | 0.00 | 0.00 | 69 | 1023.6 |
| 20260505094004 | 11 | 212 | 0.0 | 0.0 | 0.00 | 0.00 | 0.00 | 69 | 1023.6 |
| 20260505093505 | 11 | 212 | 0.0 | 0.0 | 0.00 | 0.00 | 0.00 | 70 | 1023.6 |
| 20260505093012 | 11 | 212 | 0.0 | 0.0 | 0.00 | 0.00 | 0.00 | 70 | 1023.6 |
| 20260505092505 | 11 | 212 | 0.0 | 0.0 | 0.00 | 0.00 | 0.00 | 70 | 1023.5 |
| 20260505092006 | 11 | 212 | 0.0 | 0.0 | 0.00 | 0.00 | 0.00 | 69 | 1023.6 |
| 20260505091514 | 11 | 212 | 0.0 | 1.6 | 0.00 | 0.00 | 0.00 | 69 | 1023.6 |
| 20260505091006 | 11 | 212 | 0.0 | 1.6 | 0.00 | 0.00 | 0.00 | 69 | 1023.6 |
| 20260505090504 | 11 | 212 | 0.0 | 1.6 | 0.00 | 0.00 | 0.00 | 68 | 1023.6 |
| 20260505090016 | 11 | 212 | 0.0 | 0.0 | 0.00 | 0.00 | 0.00 | 68 | 1023.5 |
| 20260505085004 | 12 | 212 | 0.0 | 0.0 | 0.00 | 0.00 | 0.00 | 68 | 1023.2 |
| 20260505084505 | 12 | 212 | 0.0 | 0.0 | 0.00 | 0.00 | 0.00 | 69 | 1023.2 |
| 20260505084004 | 12 | 212 | 0.0 | 0.0 | 0.00 | 0.00 | 0.00 | 69 | 1023.2 |
| 20260505083504 | 12 | 212 | 0.0 | 1.6 | 0.00 | 0.00 | 0.00 | 69 | 1023.2 |
| 20260505083008 | 12 | 212 | 0.0 | 1.6 | 0.00 | 0.00 | 0.00 | 70 | 1023.2 |
| 20260505082504 | 12 | 212 | 0.0 | 0.0 | 0.00 | 0.00 | 0.00 | 71 | 1023.2 |
| 20260505082006 | 12 | 212 | 0.0 | 0.0 | 0.00 | 0.03 | 0.00 | 71 | 1023.1 |
| 20260505081507 | 12 | 212 | 0.0 | 0.0 | 0.00 | 0.03 | 0.00 | 70 | 1023.1 |
| 20260505081006 | 12 | 212 | 0.0 | 4.8 | 0.00 | 0.03 | 0.00 | 70 | 1023.1 |
| 20260505080510 | 12 | 212 | 0.0 | 4.8 | 0.00 | 0.05 | 0.00 | 70 | 1023.0 |
| 20260505075510 | 12 | 148 | 0.0 | 0.0 | 0.00 | 0.08 | 0.00 | 71 | 1022.8 |
| 20260505075007 | 12 | 148 | 0.0 | 0.0 | 0.00 | 0.08 | 0.00 | 71 | 1022.7 |
| 20260505074522 | 12 | 148 | 0.0 | 4.8 | 0.00 | 0.08 | 0.00 | 71 | 1022.6 |
| 20260505074009 | 12 | 148 | 0.0 | 6.4 | 0.00 | 0.08 | 0.00 | 71 | 1022.6 |
| 20260505073505 | 12 | 148 | 3.2 | 6.4 | 0.00 | 0.08 | 0.00 | 71 | 1022.6 |
| 20260505073008 | 12 | 137 | 0.0 | 6.4 | 0.00 | 0.08 | 0.00 | 71 | 1022.6 |
| 20260505072505 | 12 | 130 | 3.2 | 8.0 | 0.00 | 0.08 | 0.00 | 71 | 1022.5 |
| 20260505072005 | 12 | 133 | 4.8 | 8.0 | 0.00 | 0.08 | 0.00 | 70 | 1022.5 |
| 20260505071509 | 12 | 145 | 3.2 | 6.4 | 0.00 | 0.08 | 0.00 | 70 | 1022.3 |
| 20260505071005 | 12 | 154 | 1.6 | 6.4 | 0.00 | 0.08 | 0.00 | 70 | 1022.3 |
| 20260505070508 | 12 | 172 | 1.6 | 4.8 | 0.00 | 0.08 | 0.00 | 70 | 1022.3 |
| 20260505070019 | 12 | 189 | 0.0 | 4.8 | 0.00 | 0.08 | 0.00 | 70 | 1022.3 |
| 20260505065507 | 12 | 189 | 3.2 | 4.8 | 0.00 | 0.08 | 0.00 | 69 | 1022.2 |
| 20260505065007 | 12 | 189 | 3.2 | 4.8 | 0.00 | 0.08 | 0.00 | 69 | 1022.2 |
| 20260505064514 | 12 | 189 | 0.0 | 8.0 | 0.00 | 0.08 | 0.00 | 69 | 1022.1 |
| 20260505064005 | 12 | 175 | 3.2 | 8.0 | 0.00 | 0.08 | 0.00 | 67 | 1022.1 |
| 20260505063509 | 13 | 193 | 3.2 | 12.9 | 0.00 | 0.08 | 0.00 | 67 | 1021.9 |
| 20260505063013 | 13 | 180 | 4.8 | 12.9 | 0.00 | 0.08 | 0.00 | 66 | 1021.9 |
| 20260505062511 | 13 | 210 | 6.4 | 9.7 | 0.00 | 0.08 | 0.00 | 65 | 1021.9 |
| 20260505062009 | 13 | 190 | 4.8 | 8.0 | 0.00 | 0.08 | 0.00 | 65 | 1021.9 |
| 20260505061509 | 13 | 205 | 4.8 | 11.3 | 0.00 | 0.08 | 0.00 | 65 | 1021.9 |
| 20260505061010 | 13 | 172 | 4.8 | 12.9 | 0.00 | 0.08 | 0.00 | 65 | 1021.9 |
| 20260505060506 | 13 | 192 | 4.8 | 14.5 | 0.00 | 0.08 | 0.00 | 65 | 1021.8 |
| 20260505060010 | 13 | 202 | 8.0 | 14.5 | 0.00 | 0.08 | 0.00 | 63 | 1021.8 |
| 20260505055507 | 13 | 239 | 6.4 | 9.7 | 0.00 | 0.08 | 0.00 | 63 | 1021.7 |
| 20260505055007 | 13 | 224 | 4.8 | 11.3 | 0.00 | 0.08 | 0.00 | 62 | 1021.7 |
| 20260505054530 | 13 | 248 | 3.2 | 11.3 | 0.00 | 0.08 | 0.00 | 63 | 1021.7 |
| 20260505054008 | 13 | 238 | 6.4 | 11.3 | 0.00 | 0.08 | 0.00 | 62 | 1021.6 |
| 20260505053511 | 13 | 250 | 3.2 | 9.7 | 0.00 | 0.08 | 0.00 | 63 | 1021.5 |
| 20260505053023 | 13 | 193 | 1.6 | 12.9 | 0.00 | 0.08 | 0.00 | 66 | 1021.4 |
| 20260505052508 | 13 | 233 | 6.4 | 16.1 | 0.00 | 0.08 | 0.00 | 64 | 1021.4 |
| 20260505052010 | 13 | 274 | 8.0 | 16.1 | 0.00 | 0.08 | 0.00 | 62 | 1021.3 |
| 20260505051522 | 13 | 261 | 9.7 | 14.5 | 0.00 | 0.08 | 0.00 | 63 | 1021.3 |
| 20260505051007 | 13 | 261 | 0.0 | 0.0 | 0.00 | 0.08 | 0.00 | 63 | 1021.4 |
| 20260505050513 | 13 | 201 | 0.0 | 0.0 | 0.00 | 0.08 | 0.00 | 63 | 1021.4 |
| 20260505041522 | 12 | 271 | 1.6 | 14.5 | 0.00 | 0.08 | 0.00 | 65 | 1021.2 |
| 20260505041009 | 12 | 294 | 8.0 | 12.9 | 0.00 | 0.08 | 0.00 | 66 | 1021.2 |
| 20260505040511 | 12 | 231 | 6.4 | 12.9 | 0.00 | 0.08 | 0.00 | 65 | 1021.1 |
| 20260505040030 | 12 | 243 | 4.8 | 12.9 | 0.00 | 0.08 | 0.00 | 65 | 1021.1 |
| 20260505035507 | 12 | 256 | 4.8 | 11.3 | 0.00 | 0.08 | 0.00 | 67 | 1021.1 |
| 20260505035007 | 12 | 237 | 4.8 | 16.1 | 0.00 | 0.08 | 0.00 | 67 | 1021.1 |
| 20260505034505 | 12 | 236 | 8.0 | 16.1 | 0.00 | 0.08 | 0.00 | 67 | 1021.1 |
| 20260505034004 | 12 | 248 | 6.4 | 17.7 | 0.00 | 0.08 | 0.00 | 66 | 1021.1 |
| 20260505033506 | 12 | 255 | 4.8 | 17.7 | 0.00 | 0.08 | 0.00 | 67 | 1021.2 |
| 20260505033015 | 12 | 210 | 6.4 | 14.5 | 0.00 | 0.08 | 0.00 | 67 | 1021.1 |
| 20260505032507 | 12 | 267 | 4.8 | 12.9 | 0.00 | 0.08 | 0.00 | 68 | 1021.0 |
| 20260505031519 | 12 | 260 | 8.0 | 12.9 | 0.00 | 0.08 | 0.00 | 68 | 1021.1 |
| 20260505031007 | 12 | 241 | 6.4 | 19.3 | 0.00 | 0.08 | 0.00 | 67 | 1021.2 |
| 20260505030504 | 12 | 245 | 9.7 | 19.3 | 0.00 | 0.08 | 0.00 | 68 | 1021.2 |
| 20260505030036 | 12 | 222 | 8.0 | 14.5 | 0.00 | 0.08 | 0.00 | 68 | 1021.2 |
| 20260505025508 | 12 | 253 | 6.4 | 20.9 | 0.00 | 0.08 | 0.00 | 68 | 1021.2 |
| 20260505025006 | 11 | 263 | 11.3 | 20.9 | 0.00 | 0.08 | 0.00 | 70 | 1021.2 |
| 20260505024516 | 11 | 234 | 8.0 | 19.3 | 0.00 | 0.08 | 0.00 | 70 | 1021.2 |
| 20260505024004 | 11 | 233 | 9.7 | 19.3 | 0.00 | 0.08 | 0.00 | 70 | 1021.2 |
| 20260505023504 | 12 | 245 | 9.7 | 16.1 | 0.00 | 0.08 | 0.00 | 69 | 1021.3 |
| 20260505023016 | 12 | 254 | 11.3 | 16.1 | 0.00 | 0.08 | 0.00 | 68 | 1021.4 |
| 20260505022506 | 12 | 262 | 8.0 | 16.1 | 0.00 | 0.08 | 0.00 | 69 | 1021.4 |
| 20260505022008 | 12 | 289 | 6.4 | 17.7 | 0.00 | 0.08 | 0.00 | 68 | 1021.4 |
| 20260505021008 | 11 | 250 | 4.8 | 19.3 | 0.00 | 0.08 | 0.00 | 70 | 1021.5 |
| 20260505020507 | 12 | 260 | 11.3 | 20.9 | 0.00 | 0.08 | 0.00 | 71 | 1021.6 |
| 20260505020010 | 12 | 254 | 12.9 | 20.9 | 0.00 | 0.08 | 0.00 | 70 | 1021.5 |
| 20260505015509 | 12 | 258 | 14.5 | 20.9 | 0.00 | 0.08 | 0.00 | 69 | 1021.6 |
| 20260505014532 | 12 | 252 | 12.9 | 20.9 | 0.00 | 0.08 | 0.00 | 70 | 1021.6 |
| 20260505013507 | 12 | 245 | 11.3 | 24.1 | 0.00 | 0.08 | 0.00 | 69 | 1021.7 |
| 20260505013017 | 12 | 241 | 12.9 | 24.1 | 0.00 | 0.08 | 0.00 | 68 | 1021.6 |
| 20260505012507 | 12 | 262 | 9.7 | 22.5 | 0.00 | 0.08 | 0.00 | 68 | 1021.7 |
| 20260505012006 | 12 | 277 | 9.7 | 20.9 | 0.00 | 0.08 | 0.00 | 67 | 1021.7 |
| 20260505011515 | 12 | 247 | 12.9 | 35.4 | 0.00 | 0.08 | 0.00 | 68 | 1021.6 |
| 20260505011007 | 12 | 230 | 19.3 | 35.4 | 0.00 | 0.08 | 0.00 | 68 | 1021.5 |
| 20260505010507 | 12 | 256 | 24.1 | 33.8 | 0.00 | 0.08 | 0.00 | 67 | 1021.4 |
| 20260505010020 | 12 | 231 | 12.9 | 22.5 | 0.00 | 0.08 | 0.00 | 69 | 1021.5 |
| 20260505005512 | 12 | 218 | 14.5 | 25.7 | 0.00 | 0.08 | 0.00 | 69 | 1021.4 |
| 20260505005008 | 12 | 264 | 16.1 | 25.7 | 0.00 | 0.08 | 0.00 | 69 | 1021.4 |
| 20260505004010 | 12 | 234 | 16.1 | 25.7 | 0.00 | 0.08 | 0.00 | 70 | 1021.3 |
| 20260505003508 | 12 | 242 | 12.9 | 24.1 | 0.00 | 0.08 | 0.00 | 72 | 1021.2 |
| 20260505003015 | 12 | 233 | 11.3 | 20.9 | 0.00 | 0.08 | 0.00 | 71 | 1021.2 |
| 20260505002509 | 12 | 287 | 14.5 | 19.3 | 0.00 | 0.08 | 0.00 | 71 | 1021.1 |
| 20260505002008 | 11 | 242 | 9.7 | 22.5 | 0.00 | 0.08 | 0.00 | 72 | 1021.1 |
| 20260505001510 | 11 | 210 | 12.9 | 22.5 | 0.00 | 0.08 | 0.00 | 72 | 1020.9 |
| 20260505001007 | 11 | 241 | 16.1 | 24.1 | 0.00 | 0.08 | 0.00 | 72 | 1020.9 |
| 20260505000511 | 12 | 270 | 16.1 | 24.1 | 0.00 | 0.08 | 0.00 | 74 | 1020.9 |
| 20260505000018 | 11 | 233 | 14.5 | 20.9 | 0.00 | 0.08 | 0.00 | 75 | 1021.0 |
| 20260504235507 | 11 | 254 | 11.3 | 17.7 | 0.00 | 0.08 | 0.00 | 78 | 1020.9 |
| 20260504235008 | 11 | 254 | 8.0 | 17.7 | 0.00 | 0.08 | 0.00 | 78 | 1020.9 |
| 20260504234521 | 11 | 278 | 11.3 | 16.1 | 0.00 | 0.08 | 0.00 | 79 | 1020.9 |
| 20260504234008 | 11 | 263 | 6.4 | 16.1 | 0.00 | 0.08 | 0.00 | 79 | 1020.9 |
| 20260504233025 | 11 | 256 | 8.0 | 17.7 | 0.00 | 0.08 | 0.00 | 81 | 1020.8 |
| 20260504232014 | 11 | 253 | 11.3 | 20.9 | 0.00 | 0.08 | 0.00 | 82 | 1020.8 |
| 20260504231523 | 10 | 241 | 11.3 | 20.9 | 0.00 | 0.08 | 0.00 | 83 | 1020.9 |
| 20260504231011 | 10 | 266 | 11.3 | 19.3 | 0.00 | 0.08 | 0.00 | 84 | 1020.8 |
| 20260504230513 | 10 | 256 | 6.4 | 14.5 | 0.00 | 0.08 | 0.00 | 86 | 1020.6 |
| 20260504230022 | 10 | 247 | 1.6 | 11.3 | 0.00 | 0.08 | 0.00 | 86 | 1020.7 |
| 20260504225508 | 10 | 280 | 4.8 | 11.3 | 0.00 | 0.08 | 0.00 | 86 | 1020.6 |
| 20260504225011 | 10 | 305 | 4.8 | 9.7 | 0.00 | 0.08 | 0.00 | 86 | 1020.4 |
| 20260504224518 | 10 | 299 | 0.0 | 4.8 | 0.00 | 0.08 | 0.00 | 86 | 1020.5 |
| 20260504224007 | 10 | 310 | 0.0 | 4.8 | 0.00 | 0.08 | 0.00 | 86 | 1020.4 |
| 20260504222510 | 10 | 287 | 1.6 | 9.7 | 0.00 | 0.08 | 0.00 | 86 | 1020.2 |
| 20260504222010 | 10 | 285 | 4.8 | 11.3 | 0.00 | 0.08 | 0.00 | 86 | 1020.1 |
| 20260504221536 | 10 | 297 | 4.8 | 11.3 | 0.00 | 0.08 | 0.00 | 85 | 1020.0 |
| 20260504221011 | 10 | 320 | 1.6 | 9.7 | 0.00 | 0.08 | 0.00 | 85 | 1020.0 |
| 20260504220508 | 10 | 322 | 4.8 | 9.7 | 0.00 | 0.08 | 0.00 | 85 | 1020.0 |